• In Uzbekistan
  • List of Countries
  • For 7 days
  • Water Temperature
  • Satellite Maps
  • Weather Map
  • Weather Widgets
  • user-avatar
    Login

    Hourly Weather Livingstone

    Today, 16 October, Tuesday

    Time Temperature Precipitation Wind Pressure Humidity
    00:00 +29°C° 0 mm 1 mps 682 mmHg 43%
    01:00 +28°C° 0 mm 1 mps 682 mmHg 46%
    02:00 +27°C° 0 mm 1 mps 682 mmHg 49%
    03:00 +27°C° 0 mm 1 mps 682 mmHg 50%
    04:00 +26°C° 0 mm 1 mps 682 mmHg 51%
    05:00 +26°C° 0 mm 1 mps 682 mmHg 53%
    06:00 +28°C° 0 mm 1 mps 683 mmHg 48%
    07:00 +30°C° 0 mm 2 mps 683 mmHg 43%
    08:00 +31°C° 0 mm 2 mps 684 mmHg 38%
    09:00 +35°C° 0 mm 2 mps 684 mmHg 32%
    10:00 +37°C° 0 mm 2 mps 684 mmHg 26%
    11:00 +40°C° 0 mm 2 mps 685 mmHg 21%
    12:00 +39°C° 0 mm 2 mps 684 mmHg 20%
    13:00 +39°C° 0 mm 2 mps 683 mmHg 19%
    14:00 +39°C° 0 mm 1 mps 682 mmHg 18%
    15:00 +38°C° 0 mm 2 mps 682 mmHg 19%
    16:00 +37°C° 0 mm 2 mps 682 mmHg 20%
    17:00 +37°C° 0 mm 3 mps 682 mmHg 21%
    18:00 +35°C° 0 mm 3 mps 682 mmHg 25%
    19:00 +34°C° 0 mm 3 mps 682 mmHg 28%
    20:00 +33°C° 0 mm 3 mps 683 mmHg 31%
    21:00 +31°C° 0 mm 3 mps 683 mmHg 34%
    22:00 +30°C° 0 mm 3 mps 683 mmHg 37%
    23:00 +29°C° 0 mm 2 mps 683 mmHg 40%

    Tomorrow, 17 October, Wednesday

    Time Temperature Precipitation Wind Pressure Humidity
    00:00 +28°C° 0 mm 2 mps 682 mmHg 41%
    01:00 +27°C° 0 mm 1 mps 682 mmHg 42%
    02:00 +27°C° 0 mm 1 mps 681 mmHg 43%
    03:00 +26°C° 0 mm 1 mps 681 mmHg 44%
    04:00 +26°C° 0 mm 1 mps 681 mmHg 45%
    05:00 +25°C° 0 mm 1 mps 681 mmHg 46%
    06:00 +28°C° 0 mm 2 mps 682 mmHg 40%
    07:00 +30°C° 0 mm 2 mps 682 mmHg 35%
    08:00 +33°C° 0 mm 3 mps 683 mmHg 29%
    09:00 +35°C° 0 mm 3 mps 683 mmHg 24%
    10:00 +37°C° 0 mm 3 mps 683 mmHg 20%
    11:00 +39°C° 0 mm 3 mps 684 mmHg 15%
    12:00 +40°C° 0 mm 3 mps 683 mmHg 14%
    13:00 +42°C° 0 mm 3 mps 682 mmHg 12%
    14:00 +42°C° 0 mm 2 mps 681 mmHg 11%
    15:00 +41°C° 0 mm 2 mps 681 mmHg 11%
    16:00 +40°C° 0 mm 3 mps 680 mmHg 12%
    17:00 +39°C° 0 mm 3 mps 680 mmHg 13%
    18:00 +37°C° 0 mm 3 mps 680 mmHg 15%
    19:00 +36°C° 0 mm 2 mps 680 mmHg 17%
    20:00 +34°C° 0 mm 2 mps 681 mmHg 19%
    21:00 +32°C° 0 mm 2 mps 681 mmHg 21%
    22:00 +31°C° 0 mm 2 mps 681 mmHg 22%
    23:00 +30°C° 0 mm 2 mps 681 mmHg 24%

    Day after tomorrow, 18 October, Thursday

    Time Temperature Precipitation Wind Pressure Humidity
    00:00 +30°C° 0 mm 2 mps 680 mmHg 26%
    01:00 +29°C° 0 mm 1 mps 680 mmHg 27%
    02:00 +28°C° 0 mm 1 mps 679 mmHg 29%
    03:00 +28°C° 0 mm 1 mps 679 mmHg 30%
    04:00 +28°C° 0 mm 1 mps 679 mmHg 31%
    05:00 +27°C° 0 mm 1 mps 680 mmHg 33%
    06:00 +29°C° 0 mm 1 mps 680 mmHg 31%
    07:00 +31°C° 0 mm 2 mps 681 mmHg 29%
    08:00 +32°C° 0 mm 2 mps 682 mmHg 27%
    09:00 +36°C° 0 mm 2 mps 682 mmHg 23%
    10:00 +38°C° 0 mm 2 mps 683 mmHg 19%
    11:00 +41°C° 0 mm 2 mps 683 mmHg 15%
    12:00 +41°C° 0 mm 2 mps 682 mmHg 15%
    13:00 +41°C° 0 mm 1 mps 681 mmHg 14%
    14:00 +41°C° 0 mm 1 mps 680 mmHg 14%
    15:00 +40°C° 0 mm 1 mps 680 mmHg 14%
    16:00 +40°C° 0 mm 1 mps 680 mmHg 14%
    17:00 +39°C° 0 mm 1 mps 679 mmHg 15%
    18:00 +37°C° 0 mm 1 mps 680 mmHg 16%
    19:00 +36°C° 0 mm 1 mps 680 mmHg 18%
    20:00 +34°C° 0 mm 1 mps 680 mmHg 19%
    21:00 +34°C° 0 mm 1 mps 681 mmHg 20%
    22:00 +33°C° 0 mm 1 mps 681 mmHg 21%
    23:00 +32°C° 0 mm 2 mps 681 mmHg 22%

    19 October, Friday

    Time Temperature Precipitation Wind Pressure Humidity
    00:00 +31°C° 0 mm 2 mps 680 mmHg 23%
    01:00 +31°C° 0 mm 2 mps 680 mmHg 24%
    02:00 +30°C° 0 mm 2 mps 680 mmHg 25%
    03:00 +30°C° 0 mm 2 mps 680 mmHg 26%
    04:00 +29°C° 0 mm 3 mps 680 mmHg 28%
    05:00 +29°C° 0 mm 3 mps 680 mmHg 30%
    06:00 +30°C° 0 mm 3 mps 681 mmHg 29%
    07:00 +32°C° 0 mm 4 mps 682 mmHg 28%
    08:00 +34°C° 0 mm 4 mps 683 mmHg 27%
    09:00 +36°C° 0 mm 4 mps 683 mmHg 24%
    10:00 +38°C° 0 mm 4 mps 683 mmHg 20%
    11:00 +41°C° 0 mm 4 mps 683 mmHg 17%
    12:00 +42°C° 0 mm 3 mps 683 mmHg 15%
    13:00 +42°C° 0 mm 3 mps 682 mmHg 14%
    14:00 +43°C° 0 mm 3 mps 681 mmHg 12%
    15:00 +42°C° 0 mm 3 mps 681 mmHg 13%
    16:00 +42°C° 0 mm 3 mps 681 mmHg 13%
    17:00 +40°C° 0 mm 3 mps 680 mmHg 14%
    18:00 +38°C° 0 mm 3 mps 681 mmHg 16%
    19:00 +37°C° 0 mm 3 mps 681 mmHg 19%
    20:00 +35°C° 0 mm 3 mps 681 mmHg 21%
    21:00 +34°C° 0 mm 3 mps 681 mmHg 23%
    22:00 +32°C° 0 mm 2 mps 681 mmHg 26%
    23:00 +31°C° 0 mm 2 mps 681 mmHg 28%

    20 October, Saturday

    Time Temperature Precipitation Wind Pressure Humidity
    00:00 +31°C° 0 mm 2 mps 681 mmHg 29%
    01:00 +30°C° 0 mm 2 mps 681 mmHg 31%
    02:00 +29°C° 0 mm 2 mps 680 mmHg 32%
    03:00 +29°C° 0 mm 2 mps 680 mmHg 34%
    04:00 +28°C° 0 mm 2 mps 681 mmHg 36%
    05:00 +28°C° 0 mm 2 mps 681 mmHg 38%
    06:00 +30°C° 0 mm 2 mps 682 mmHg 36%
    07:00 +31°C° 0 mm 3 mps 683 mmHg 34%
    08:00 +34°C° 0 mm 3 mps 684 mmHg 31%
    09:00 +36°C° 0 mm 3 mps 684 mmHg 27%
    10:00 +39°C° 0 mm 3 mps 684 mmHg 22%
    11:00 +41°C° 0 mm 2 mps 684 mmHg 18%
    12:00 +42°C° 0 mm 2 mps 683 mmHg 16%
    13:00 +44°C° 0 mm 3 mps 682 mmHg 13%
    14:00 +45°C° 0 mm 3 mps 681 mmHg 11%
    15:00 +44°C° 0 mm 3 mps 681 mmHg 11%
    16:00 +43°C° 0 mm 3 mps 680 mmHg 12%
    17:00 +42°C° 0 mm 4 mps 680 mmHg 12%
    18:00 +39°C° 0 mm 3 mps 680 mmHg 15%
    19:00 +37°C° 0 mm 3 mps 680 mmHg 19%
    20:00 +35°C° 0 mm 3 mps 681 mmHg 22%
    21:00 +34°C° 0 mm 3 mps 681 mmHg 24%
    22:00 +32°C° 0 mm 2 mps 681 mmHg 26%
    23:00 +32°C° 0 mm 2 mps 681 mmHg 28%

    21 October, Sunday

    Time Temperature Precipitation Wind Pressure Humidity
    00:00 +31°C° 0 mm 2 mps 680 mmHg 29%
    01:00 +30°C° 0 mm 2 mps 680 mmHg 30%
    02:00 +30°C° 0 mm 2 mps 680 mmHg 31%
    03:00 +29°C° 0 mm 2 mps 680 mmHg 33%
    04:00 +29°C° 0 mm 3 mps 681 mmHg 36%
    05:00 +28°C° 0 mm 3 mps 681 mmHg 39%
    06:00 +29°C° 0 mm 3 mps 682 mmHg 38%
    07:00 +30°C° 0 mm 4 mps 682 mmHg 37%
    08:00 +32°C° 0 mm 4 mps 683 mmHg 36%
    09:00 +34°C° 0 mm 4 mps 683 mmHg 31%
    10:00 +36°C° 0 mm 3 mps 683 mmHg 27%
    11:00 +39°C° 0 mm 3 mps 683 mmHg 22%
    12:00 +39°C° 0 mm 3 mps 682 mmHg 21%
    13:00 +41°C° 0 mm 4 mps 682 mmHg 20%
    14:00 +41°C° 0 mm 4 mps 681 mmHg 19%
    15:00 +40°C° 0.2 mm 4 mps 681 mmHg 21%
    16:00 +38°C° 0.2 mm 4 mps 680 mmHg 22%
    17:00 +37°C° 0.2 mm 4 mps 680 mmHg 24%
    18:00 +35°C° 1.1 mm 4 mps 681 mmHg 32%
    19:00 +33°C° 1.1 mm 5 mps 681 mmHg 39%
    20:00 +29°C° 1.1 mm 5 mps 682 mmHg 47%
    21:00 +28°C° 1 mm 6 mps 682 mmHg 51%
    22:00 +26°C° 1 mm 6 mps 683 mmHg 54%
    23:00 +24°C° 1 mm 6 mps 683 mmHg 58%
    Show more